TimeEDT,TemperatureF,Dew PointF,Humidity,Sea Level PressureIn,VisibilityMPH,Wind Direction,Wind SpeedMPH,Gust SpeedMPH,PrecipitationIn,Events,Conditions,WindDirDegrees,DateUTC
12:53 AM,66.9,60.1,79,30.17,10.0,ENE,3.5,-,N/A,,Overcast,60,2013-09-17 04:53:00
1:53 AM,66.0,60.1,81,30.17,10.0,NE,3.5,-,N/A,,Mostly Cloudy,50,2013-09-17 05:53:00
2:53 AM,66.0,60.1,81,30.17,10.0,ENE,3.5,-,N/A,,Mostly Cloudy,70,2013-09-17 06:53:00
3:53 AM,64.9,60.1,84,30.17,10.0,Calm,Calm,-,N/A,,Scattered Clouds,0,2013-09-17 07:53:00
4:53 AM,64.9,59.0,81,30.17,10.0,Variable,4.6,-,N/A,,Overcast,0,2013-09-17 08:53:00
5:53 AM,64.9,57.9,78,30.18,10.0,Variable,3.5,-,N/A,,Mostly Cloudy,0,2013-09-17 09:53:00
6:53 AM,64.0,57.9,80,30.19,10.0,NE,4.6,-,N/A,,Scattered Clouds,50,2013-09-17 10:53:00
7:53 AM,64.0,57.9,80,30.21,10.0,NE,3.5,-,N/A,,Overcast,50,2013-09-17 11:53:00
8:53 AM,66.9,57.0,70,30.21,10.0,ENE,4.6,-,N/A,,Clear,60,2013-09-17 12:53:00
9:53 AM,68.0,57.0,68,30.22,10.0,Variable,5.8,-,N/A,,Mostly Cloudy,0,2013-09-17 13:53:00
10:53 AM,71.1,57.9,63,30.23,10.0,Variable,5.8,-,N/A,,Partly Cloudy,0,2013-09-17 14:53:00
11:53 AM,73.0,59.0,61,30.22,10.0,ENE,3.5,-,N/A,,Scattered Clouds,70,2013-09-17 15:53:00
12:53 PM,75.9,60.1,58,30.20,10.0,Calm,Calm,-,N/A,,Mostly Cloudy,0,2013-09-17 16:53:00
1:53 PM,78.1,61.0,56,30.19,10.0,Calm,Calm,-,N/A,,Overcast,0,2013-09-17 17:53:00
2:53 PM,77.0,61.0,58,30.17,10.0,East,3.5,-,N/A,,Overcast,80,2013-09-17 18:53:00
3:53 PM,78.1,62.1,58,30.15,10.0,Calm,Calm,-,N/A,,Overcast,0,2013-09-17 19:53:00
4:53 PM,79.0,63.0,58,30.14,10.0,Calm,Calm,-,N/A,,Mostly Cloudy,0,2013-09-17 20:53:00
5:53 PM,78.1,63.0,60,30.14,10.0,Calm,Calm,-,N/A,,Mostly Cloudy,0,2013-09-17 21:53:00
6:53 PM,78.1,62.1,58,30.14,10.0,SSW,3.5,-,N/A,,Mostly Cloudy,200,2013-09-17 22:53:00
7:53 PM,75.9,63.0,64,30.14,10.0,Calm,Calm,-,N/A,,Clear,0,2013-09-17 23:53:00
8:53 PM,70.0,64.9,84,30.14,10.0,Calm,Calm,-,N/A,,Clear,0,2013-09-18 00:53:00
9:53 PM,69.1,64.9,87,30.16,10.0,Calm,Calm,-,N/A,,Clear,0,2013-09-18 01:53:00
10:53 PM,68.0,64.9,90,30.17,10.0,Calm,Calm,-,N/A,,Overcast,0,2013-09-18 02:53:00
11:53 PM,71.1,64.9,81,30.17,10.0,Calm,Calm,-,N/A,,Overcast,0,2013-09-18 03:53:00